Torna al catalogo

THORAD AGENA D DEB

AttivoSSO
NORAD 4854·DEBRIS·🇺🇸 United States

Lanciato Apr 8, 1970 da Vandenberg Space Force Base

Loading…

Prossimi Passaggi

TLE

Source: Space-Track
1  4854U 70025EJ  26225.08226955  .00000126  00000-0  23579-3 0  9997
2  4854  99.3553  57.1330 0018237  34.3963  84.2017 13.57100130780025

Traccia THORAD AGENA D DEB in tempo reale con AllMySat

Download on the App Store